Main page
METAR-TAF:

METAR-TAF

Airports :

Chandigarh, India

Chandigarh Airport

latitude: 30-40-29N, longitude: 76-47-26E, elevation: 314 m

Current weather observation

The report was made 4 hours and 33 minutes ago, at 09:30 UTC
Wind 5 kt from the North
Temperature 32°C
Humidity 34%
Pressure 1006 hPa
Visibility: 6000 m
Clear sky

METAR: VICG 210930Z 35005KT 6000 SKC 32/14 Q1006 NOSIG

Time: 19:33 (14:03 UTC)


TAF: missing

Weather observations and forecasts of more than 4000 airports (METAR and TAF reports).

The available stations are represented by yellow and red dots on the map.

Hover mouse over dot to see the name of the station.

Then click to see weather observations and forecasts.

To change the map : click on the green buttons with a black cross to zoom in, on the green button with a dash to zoom out, or on the green arrows for adjacent maps.


METAR-TAF: